Powrót do katalogu

FENGYUN 1C DEB

AktywnyPO
NORAD 31893·DEBRIS·🇨🇳 China

Wystrzelony May 10, 1999 z Taiyuan Satellite Launch Center

Loading…

Następne Przeloty (najbliższe 24 godziny)

TLE

ŚwieżeSource: Space-Track

Epoka: Sep 14, 2026, 05:09 UTC

1 31893U 99025CKU 26257.21522170  .00000600  00000-0  10152-3 0  9999
2 31893  99.1020 249.0175 0172389 202.5396 221.0542 14.64699530 24247

Śledź FENGYUN 1C DEB w czasie rzeczywistym z AllMySat

Download on the App Store